This demonstration page uses our WeatherBlox Daily Observations layout. Learn more.

Left ArrowRight Arrow

38.88101, -77.10428

Hourly Observations for April 16, 2021

Temp ( °F °C ) Dew Point ( °F °C ) Humidity (%) Winds ( mph kmh ) Pressure ( in mb ) Visibility ( mi km ) Precip ( " mm )
12:52 am 00:52 Clear 49 9.4 27 -2.8 43 43 NW 10 17 29.83 1010 10 16.0934 0 0
1:52 am 01:52 Clear 47 8.3 28 -2.2 48 48 NW 8 13 29.83 1010 10 16.0934 0 0
2:52 am 02:52 Clear 47 8.3 29 -1.7 50 50 W 6 9 29.81 1009 10 16.0934 0 0
3:52 am 03:52 Clear 47 8.3 29 -1.7 50 50 W 9 15 29.8 1009 10 16.0934 0 0
4:52 am 04:52 Mostly Clear 44 6.7 31 -0.6 60 60 SW 6 9 29.79 1009 10 16.0934 0 0
5:52 am 05:52 Mostly Clear 44 6.7 31 -0.6 60 60 SW 7 11 29.8 1009 10 16.0934 0 0
6:52 am 06:52 Partly Cloudy 46 7.8 31 -0.6 56 56 W 8 13 29.81 1009 10 16.0934 0 0
7:52 am 07:52 Mostly Cloudy 48 8.9 32 0 54 54 WSW 7 11 29.82 1010 10 16.0934 0 0
8:52 am 08:52 Partly Cloudy 51 10.6 33 0.6 50 50 W 9 15 29.82 1010 10 16.0934 0 0
9:52 am 09:52 Cloudy 51 10.6 33 0.6 50 50 W 17 28 29.82 1010 10 16.0934 0 0
10:52 am 10:52 Cloudy 52 11.1 34 1.1 50 50 W 9 15 29.81 1010 10 16.0934 0 0
11:52 am 11:52 Cloudy 54 12.2 34 1.1 47 47 WNW 12 19 29.8 1009 10 16.0934 0 0
12:52 pm 12:52 Cloudy 56 13.3 33 0.6 42 42 WNW 15 24 29.78 1009 10 16.0934 0 0
1:52 pm 13:52 Cloudy 57 13.9 33 0.6 41 41 W 17 28 29.77 1008 10 16.0934 0 0
2:52 pm 14:52 Mostly Cloudy 60 15.6 35 1.7 39 39 WNW 13 20 29.75 1008 10 16.0934 0 0
3:52 pm 15:52 Mostly Cloudy 62 16.7 34 1.1 35 35 NW 17 28 29.75 1007 10 16.0934 0 0
4:52 pm 16:52 Partly Cloudy 59 15 33 0.6 38 38 WNW 17 28 29.75 1007 10 16.0934 0 0
5:52 pm 17:52 Partly Cloudy 58 14.4 33 0.6 39 39 NW 20 31 29.76 1008 10 16.0934 0 0
6:52 pm 18:52 Partly Cloudy 57 13.9 32 0 39 39 W 20 31 29.78 1009 10 16.0934 0 0
7:52 pm 19:52 Mostly Clear 54 12.2 32 0 43 43 W 13 20 29.81 1009 10 16.0934 0 0
8:52 pm 20:52 Mostly Clear 53 11.7 32 0 45 45 WNW 15 24 29.84 1010 10 16.0934 0 0
9:52 pm 21:52 Mostly Clear 53 11.7 32 0 45 45 NW 13 20 29.84 1011 10 16.0934 0 0
10:52 pm 22:52 Mostly Clear 51 10.6 32 0 48 48 NNW 9 15 29.84 1011 10 16.0934 0 0
11:52 pm 23:52 Mostly Clear 50 10 33 0.6 52 52 VRB 6 9 29.84 1011 10 16.0934 0 0

Powered by AerisWeather